When you browse on this site, cookies collect data to enhance your experience and personalize the content and advertising you see.
Visit our Privacy Policy to learn more. By continuing to use the site, you agree to this use of cookies and data.
  • In France
  • List of Countries
  • For 7 days
  • Water Temperature
  • Weather Map
  • Weather Widgets
  • user-avatar
    Login

    Hourly Weather Banska Bystrica

    Today, 22 August, Thursday

    Time Temperature Precipitation Wind Pressure Humidity
    00:00 +14°C° 0 mm 2 mps 717 mmHg 95%
    01:00 +14°C° 0 mm 2 mps 718 mmHg 93%
    02:00 +13°C° 0.1 mm 2 mps 717 mmHg 94%
    03:00 +13°C° 0.1 mm 2 mps 717 mmHg 94%
    04:00 +13°C° 0.1 mm 2 mps 717 mmHg 95%
    05:00 +14°C° 0.1 mm 1 mps 717 mmHg 93%
    06:00 +15°C° 0.1 mm 1 mps 717 mmHg 90%
    07:00 +16°C° 0 mm 1 mps 718 mmHg 85%
    08:00 +19°C° 0 mm 1 mps 718 mmHg 77%
    09:00 +22°C° 0 mm 1 mps 718 mmHg 69%
    10:00 +24°C° 0 mm 1 mps 719 mmHg 61%
    11:00 +24°C° 0.1 mm 1 mps 719 mmHg 62%
    12:00 +25°C° 0.1 mm 1 mps 718 mmHg 62%
    13:00 +25°C° 0.1 mm 1 mps 718 mmHg 63%
    14:00 +25°C° 0.1 mm 1 mps 718 mmHg 66%
    15:00 +24°C° 0.1 mm 1 mps 718 mmHg 70%
    16:00 +23°C° 0.1 mm 1 mps 717 mmHg 73%
    17:00 +22°C° 0.1 mm 1 mps 717 mmHg 79%
    18:00 +21°C° 0.1 mm 1 mps 717 mmHg 85%
    19:00 +19°C° 0.1 mm 1 mps 717 mmHg 91%
    20:00 +19°C° 0.1 mm 1 mps 717 mmHg 92%
    21:00 +18°C° 0.1 mm 1 mps 717 mmHg 92%
    22:00 +18°C° 0.1 mm 1 mps 717 mmHg 93%
    23:00 +16°C° 0.1 mm 1 mps 717 mmHg 93%

    Tomorrow, 23 August, Friday

    Time Temperature Precipitation Wind Pressure Humidity
    00:00 +16°C° 0.1 mm 1 mps 717 mmHg 94%
    01:00 +16°C° 0.1 mm 1 mps 717 mmHg 94%
    02:00 +16°C° 0 mm 1 mps 717 mmHg 94%
    03:00 +16°C° 0 mm 1 mps 717 mmHg 94%
    04:00 +15°C° 0 mm 1 mps 717 mmHg 94%
    05:00 +18°C° 0 mm 1 mps 717 mmHg 90%
    06:00 +19°C° 0 mm 1 mps 717 mmHg 86%
    07:00 +20°C° 0 mm 1 mps 717 mmHg 82%
    08:00 +22°C° 0 mm 1 mps 718 mmHg 76%
    09:00 +24°C° 0 mm 1 mps 718 mmHg 69%
    10:00 +24°C° 0 mm 0 mps 719 mmHg 62%
    11:00 +26°C° 0 mm 1 mps 718 mmHg 60%
    12:00 +27°C° 0 mm 1 mps 718 mmHg 59%
    13:00 +28°C° 0 mm 1 mps 718 mmHg 57%
    14:00 +27°C° 0 mm 1 mps 718 mmHg 58%
    15:00 +27°C° 0 mm 1 mps 717 mmHg 59%
    16:00 +27°C° 0 mm 1 mps 717 mmHg 61%
    17:00 +23°C° 0.3 mm 0 mps 717 mmHg 69%
    18:00 +21°C° 0.3 mm 0 mps 717 mmHg 77%
    19:00 +19°C° 0.3 mm 0 mps 716 mmHg 85%
    20:00 +18°C° 1 mm 0 mps 716 mmHg 88%
    21:00 +20°C° 1 mm 1 mps 716 mmHg 90%
    22:00 +19°C° 1 mm 1 mps 716 mmHg 92%
    23:00 +19°C° 0.4 mm 1 mps 716 mmHg 93%

    Day after tomorrow, 24 August, Saturday

    Time Temperature Precipitation Wind Pressure Humidity
    00:00 +19°C° 0.4 mm 1 mps 716 mmHg 93%
    01:00 +18°C° 0.4 mm 1 mps 716 mmHg 93%
    02:00 +18°C° 0 mm 1 mps 715 mmHg 93%
    03:00 +18°C° 0 mm 1 mps 715 mmHg 92%
    04:00 +18°C° 0 mm 1 mps 715 mmHg 92%
    05:00 +19°C° 0 mm 1 mps 715 mmHg 89%
    06:00 +20°C° 0 mm 1 mps 716 mmHg 86%
    07:00 +22°C° 0 mm 1 mps 716 mmHg 83%
    08:00 +24°C° 0 mm 1 mps 716 mmHg 73%
    09:00 +24°C° 0 mm 0 mps 716 mmHg 63%
    10:00 +27°C° 0 mm 0 mps 717 mmHg 53%
    11:00 +29°C° 0.1 mm 1 mps 717 mmHg 50%
    12:00 +30°C° 0.1 mm 1 mps 716 mmHg 47%
    13:00 +31°C° 0.1 mm 1 mps 716 mmHg 44%
    14:00 +30°C° 0.1 mm 1 mps 716 mmHg 48%
    15:00 +29°C° 0.1 mm 1 mps 716 mmHg 51%
    16:00 +29°C° 0.1 mm 1 mps 715 mmHg 54%
    17:00 +27°C° 0.5 mm 1 mps 715 mmHg 62%
    18:00 +24°C° 0.5 mm 1 mps 715 mmHg 69%
    19:00 +22°C° 0.5 mm 1 mps 714 mmHg 77%
    20:00 +22°C° 0.5 mm 1 mps 714 mmHg 80%
    21:00 +21°C° 0.5 mm 1 mps 714 mmHg 83%
    22:00 +20°C° 0.5 mm 1 mps 714 mmHg 85%
    23:00 +20°C° 0.3 mm 1 mps 714 mmHg 86%

    25 August, Sunday

    Time Temperature Precipitation Wind Pressure Humidity
    00:00 +20°C° 0.3 mm 1 mps 714 mmHg 87%
    01:00 +19°C° 0.3 mm 1 mps 714 mmHg 88%
    02:00 +19°C° 0.3 mm 1 mps 714 mmHg 88%
    03:00 +19°C° 0.3 mm 1 mps 714 mmHg 88%
    04:00 +19°C° 0.3 mm 1 mps 714 mmHg 88%
    05:00 +20°C° 0.4 mm 1 mps 714 mmHg 87%
    06:00 +21°C° 0.4 mm 1 mps 714 mmHg 85%
    07:00 +22°C° 0.4 mm 1 mps 714 mmHg 83%
    08:00 +24°C° 0.2 mm 1 mps 715 mmHg 74%
    09:00 +26°C° 0.2 mm 1 mps 715 mmHg 66%
    10:00 +29°C° 0.2 mm 1 mps 716 mmHg 57%
    11:00 +29°C° 0.3 mm 1 mps 715 mmHg 54%
    12:00 +29°C° 0.3 mm 1 mps 715 mmHg 51%
    13:00 +30°C° 0.3 mm 1 mps 715 mmHg 49%
    14:00 +29°C° 0 mm 1 mps 715 mmHg 51%
    15:00 +29°C° 0 mm 1 mps 715 mmHg 53%
    16:00 +29°C° 0 mm 1 mps 714 mmHg 55%
    17:00 +27°C° 0 mm 1 mps 714 mmHg 61%
    18:00 +25°C° 0 mm 1 mps 714 mmHg 68%
    19:00 +23°C° 0 mm 1 mps 714 mmHg 74%
    20:00 +22°C° 0.2 mm 1 mps 714 mmHg 76%
    21:00 +21°C° 0.2 mm 1 mps 714 mmHg 79%
    22:00 +21°C° 0.2 mm 1 mps 714 mmHg 82%
    23:00 +20°C° 0.1 mm 1 mps 714 mmHg 82%

    26 August, Monday

    Time Temperature Precipitation Wind Pressure Humidity
    00:00 +20°C° 0.1 mm 1 mps 714 mmHg 83%
    01:00 +20°C° 0.1 mm 1 mps 714 mmHg 84%
    02:00 +20°C° 0 mm 1 mps 713 mmHg 84%
    03:00 +19°C° 0 mm 1 mps 713 mmHg 83%
    04:00 +19°C° 0 mm 1 mps 713 mmHg 83%
    05:00 +20°C° 0 mm 1 mps 714 mmHg 81%
    06:00 +22°C° 0 mm 1 mps 714 mmHg 79%
    07:00 +23°C° 0 mm 1 mps 714 mmHg 76%
    08:00 +25°C° 0.1 mm 1 mps 715 mmHg 68%
    09:00 +27°C° 0.1 mm 1 mps 715 mmHg 61%
    10:00 +29°C° 0.1 mm 1 mps 715 mmHg 53%
    11:00 +30°C° 0.1 mm 1 mps 715 mmHg 49%
    12:00 +30°C° 0.1 mm 1 mps 715 mmHg 46%
    13:00 +31°C° 0.1 mm 1 mps 715 mmHg 43%
    14:00 +30°C° 0 mm 1 mps 715 mmHg 45%
    15:00 +30°C° 0 mm 1 mps 714 mmHg 48%
    16:00 +29°C° 0 mm 1 mps 714 mmHg 50%
    17:00 +27°C° 0.4 mm 1 mps 714 mmHg 59%
    18:00 +24°C° 0.4 mm 1 mps 713 mmHg 68%
    19:00 +22°C° 0.4 mm 1 mps 713 mmHg 78%
    20:00 +21°C° 0.3 mm 1 mps 713 mmHg 80%
    21:00 +21°C° 0.3 mm 1 mps 713 mmHg 82%
    22:00 +20°C° 0.3 mm 1 mps 713 mmHg 84%
    23:00 +20°C° 0 mm 1 mps 713 mmHg 85%

    27 August, Tuesday

    Time Temperature Precipitation Wind Pressure Humidity
    00:00 +20°C° 0 mm 1 mps 713 mmHg 85%
    01:00 +20°C° 0 mm 1 mps 713 mmHg 85%
    02:00 +19°C° 0 mm 1 mps 713 mmHg 85%
    03:00 +19°C° 0 mm 1 mps 712 mmHg 84%
    04:00 +19°C° 0 mm 1 mps 712 mmHg 84%
    05:00 +20°C° 0 mm 1 mps 712 mmHg 81%
    06:00 +21°C° 0 mm 1 mps 713 mmHg 79%
    07:00 +23°C° 0 mm 1 mps 713 mmHg 76%
    08:00 +23°C° 0 mm 0 mps 713 mmHg 67%
    09:00 +25°C° 0 mm 0 mps 714 mmHg 58%
    10:00 +28°C° 0 mm 0 mps 714 mmHg 49%
    11:00 +29°C° 0 mm 0 mps 714 mmHg 46%
    12:00 +31°C° 0 mm 1 mps 714 mmHg 43%
    13:00 +32°C° 0 mm 1 mps 714 mmHg 40%
    14:00 +31°C° 0 mm 1 mps 713 mmHg 45%
    15:00 +30°C° 0 mm 1 mps 713 mmHg 49%
    16:00 +29°C° 0 mm 1 mps 712 mmHg 53%
    17:00 +27°C° 0.8 mm 1 mps 712 mmHg 62%
    18:00 +24°C° 0.8 mm 1 mps 712 mmHg 71%
    19:00 +21°C° 0.8 mm 2 mps 712 mmHg 80%
    20:00 +21°C° 0.2 mm 1 mps 712 mmHg 81%
    21:00 +21°C° 0.2 mm 1 mps 712 mmHg 82%
    22:00 +20°C° 0.2 mm 1 mps 712 mmHg 83%
    23:00 +19°C° 0.3 mm 1 mps 712 mmHg 82%
    Show more